[[{"header":{"parameterUnit":"m.s-1","parameterCategory":1,"la1":30.2991,"la2":30.254,"lo1":-89.0895,"lo2":-89.0444,"dy":0.0017,"dx":0.0017,"nx":28,"ny":28,"refTime":"2024-05-28T09:00:00:Z","depth":0,"parameterNumber":2,"parameterNumberName":"U-component_of_WINDS"},"data":[0,0,0,0,0,0,0,0,0,0,0,0,0,0,0,0,0,0,0,0,0,0,0,0,0,0,0,0,0,0,0,0,0,0,0,0,0,0,0,0,0,0,0,0,0,0,0,0,0,0,0,0,0,0,0,0,0,0,-2.1994,-2.1993,0,-2.1882,-2.188,-2.1879,-2.1804,-2.1803,-2.1803,-2.1802,-2.1682,-2.1679,-2.1677,0,0,0,0,0,0,0,0,0,0,0,0,0,-2.2141,-2.2138,-2.1994,-2.1993,-2.1992,-2.1882,-2.188,-2.1879,-2.1804,-2.1803,-2.1803,-2.1802,-2.1683,-2.168,-2.1676,0,0,0,0,0,0,0,0,0,0,0,0,0,-2.2058,-2.2138,-2.1995,-2.1941,-2.1935,-2.1882,-2.188,-2.1878,-2.1804,-2.1803,-2.1802,-2.1802,-2.1684,-2.168,-2.1676,-2.1666,0,0,-2.1663,-2.1662,0,0,0,0,0,0,0,0,-2.2062,-2.2052,-2.195,-2.1945,-2.1938,-2.1856,-2.1888,-2.1807,-2.1804,-2.1854,-2.1802,-2.1801,-2.174,-2.1731,-2.1712,-2.166,-2.1655,-2.1663,-2.166,-2.1659,-2.1658,0,0,0,0,0,0,0,-2.2068,-2.2057,-2.195,-2.1949,-2.1941,-2.1921,-2.1909,-2.1872,-2.1802,-2.1849,-2.1843,-2.1831,-2.1737,-2.1716,-2.1708,-2.1653,-2.1663,-2.1659,-2.1657,-2.1655,-2.1588,-2.1589,0,0,0,0,0,0,-2.2083,-2.2062,-2.1953,-2.1946,-2.2,-2.1919,-2.1905,-2.1883,-2.1803,-2.179,-2.1832,-2.1828,-2.1723,-2.1713,-2.1704,-2.1687,-2.1659,-2.1655,-2.1653,-2.1588,-2.1588,-2.1589,0,0,0,0,0,0,-2.2086,-2.2074,-2.1958,-2.2002,-2.1986,-2.1918,-2.1893,-2.1881,-2.186,-2.179,-2.1777,-2.1824,-2.1722,-2.171,-2.1676,-2.1682,-2.1653,-2.1649,-2.1587,-2.1588,-2.1589,-2.1654,0,0,0,0,0,0,-2.2091,-2.2076,-2.2072,-2.2003,-2.1984,-2.1933,-2.1894,-2.188,-2.1854,-2.1848,-2.1779,-2.1766,-2.1721,-2.1683,-2.1672,-2.1676,-2.1646,-2.1586,-2.1587,-2.1589,-2.1651,-2.1657,-2.1662,0,0,0,0,0,-2.2096,-2.2094,-2.2072,-2.2059,-2.1978,-2.1934,-2.1923,-2.1872,-2.1855,-2.185,-2.1805,-2.1769,-2.1683,-2.168,-2.1667,-2.167,-2.1585,-2.1587,-2.1588,-2.1649,-2.1656,-2.1662,0,0,0,0,0,0,-2.2163,-2.2083,-2.2059,-2.2034,-2.1992,-2.1921,-2.1914,-2.1881,-2.1841,-2.1837,-2.1774,-2.1759,-2.1732,-2.1697,-2.1695,-2.1656,-2.163,-2.1629,-2.168,-2.1687,-2.1692,-2.1701,-2.1643,0,0,0,0,0,-2.2175,-2.2147,-2.2078,-2.2063,-2.2043,-2.1983,-2.1961,-2.1926,-2.1878,-2.186,-2.1812,-2.1766,-2.1729,-2.1706,-2.1668,-2.1646,-2.163,-2.1641,-2.1647,-2.1652,-2.1652,-2.1639,-2.1643,-2.1594,-2.1594,-2.1594,0,0,-2.2199,-2.2152,-2.2138,-2.2075,-2.2038,-2.201,-2.1968,-2.1939,-2.1917,-2.1854,-2.1821,-2.1785,-2.1729,-2.1702,-2.1688,-2.1672,-2.1662,-2.1654,-2.1659,-2.1655,-2.1641,-2.1645,-2.165,-2.1595,-2.1595,-2.1595,0,0,-2.2228,-2.219,-2.2174,-2.2138,-2.2083,-2.2043,-2.2039,-2.1974,-2.1948,-2.1914,-2.1867,-2.1839,-2.1777,-2.174,-2.1713,-2.173,-2.1695,-2.1719,-2.1748,-2.1736,-2.174,-2.1743,-2.175,-2.1753,-2.1719,-2.1719,-2.1719,0,-2.2264,-2.2221,-2.2169,-2.2143,-2.2117,-2.2062,-2.2044,-2.2011,-2.1947,-2.1929,-2.1914,-2.1835,-2.1794,-2.1757,-2.1762,-2.1742,-2.1735,-2.1726,-2.1744,-2.1747,-2.1749,-2.1754,-2.1757,-2.1723,-2.1722,-2.1722,-2.1721,0,-2.2268,-2.2239,-2.2232,-2.2173,-2.2146,-2.2125,-2.2068,-2.2047,-2.2014,-2.1976,-2.1942,-2.1891,-2.1842,-2.183,-2.1797,-2.179,-2.1782,-2.1756,-2.1728,-2.1758,-2.1762,-2.1763,-2.1727,-2.1726,-2.1725,-2.1724,0,0,-2.2335,-2.2249,-2.2248,-2.2221,-2.2157,-2.2133,-2.2109,-2.2063,-2.2046,-2.2003,-2.1981,-2.1931,-2.1907,-2.1876,-2.1838,-2.1828,-2.1845,-2.1803,-2.18,-2.1813,-2.1834,-2.1855,-2.1858,-2.1822,-2.1822,-2.1822,-2.1839,0,-2.2355,-2.2311,-2.2264,-2.2236,-2.2208,-2.2156,-2.2135,-2.2094,-2.2057,-2.2027,-2.1986,-2.1951,-2.1922,-2.1904,-2.1891,-2.1846,-2.1849,-2.1844,-2.18,-2.1799,-2.1816,-2.186,-2.1881,-2.1899,-2.184,-2.1841,-2.1841,0,-2.2372,-2.2334,-2.2305,-2.2245,-2.2231,-2.2214,-2.2169,-2.2141,-2.2092,-2.2067,-2.2034,-2.1994,-2.1966,-2.1942,-2.1901,-2.1899,-2.1878,-2.1854,-2.1853,-2.1847,-2.1822,-2.1855,-2.1904,-2.1907,-2.1843,-2.1843,-2.1842,0,-2.2425,-2.2366,-2.2341,-2.2319,-2.2249,-2.2238,-2.2208,-2.2159,-2.2135,-2.2094,-2.2078,-2.2035,-2.2011,-2.1978,-2.1927,-2.1914,-2.1892,-2.1864,-2.1869,-2.1871,-2.1867,-2.1868,-2.1913,-2.1854,-2.1854,-2.1854,-2.1853,0,-2.2452,-2.2435,-2.2364,-2.2349,-2.2329,-2.2275,-2.2256,-2.2221,-2.2178,-2.2154,-2.2105,-2.2084,-2.2018,-2.1989,-2.1949,-2.1922,-2.1911,-2.1889,-2.1878,-2.1893,-2.1896,-2.1878,-2.1876,-2.1854,-2.1854,-2.1854,-2.1854,0,-2.2507,-2.2458,-2.2428,-2.2364,-2.2348,-2.2336,-2.2281,-2.2264,-2.2225,-2.2196,-2.2186,-2.2124,-2.2087,-2.2034,-2.1979,-2.1953,-2.1931,-2.1914,-2.1949,-2.1942,-2.1951,-2.1951,-2.1987,-2.1989,-2.1929,-2.1929,-2.193,0,-2.2527,-2.2514,-2.245,-2.2432,-2.2404,-2.2375,-2.235,-2.2296,-2.2273,-2.2218,-2.2207,-2.2166,-2.2131,-2.2074,-2.2024,-2.1982,-2.1964,-2.1979,-2.1957,-2.1973,-2.1964,-2.1966,-2.1965,-2.1984,-2.1985,-2.1986,-2.1987,0,-2.2569,-2.2547,-2.2515,-2.2475,-2.2448,-2.2413,-2.2376,-2.2363,-2.2301,-2.2277,-2.224,-2.2213,-2.2159,-2.2119,-2.2071,-2.2038,-2.2002,-2.1994,-2.1993,-2.2009,-2.2029,-2.2019,-2.1963,-2.1994,-2.1993,-2.1992,-2.1992,-2.1992,-2.2608,-2.2594,-2.2548,-2.2514,-2.2481,-2.2448,-2.2429,-2.2389,-2.2358,-2.2311,-2.228,-2.2245,-2.2196,-2.2129,-2.2098,-2.2068,-2.2053,-2.2052,-2.2052,-2.2052,-2.2058,-2.2034,-2.2059,-2.2059,-2.2059,-2.2059,-2.2058,0,-2.2648,-2.2616,-2.2586,-2.2537,-2.251,-2.2481,-2.2438,-2.2418,-2.2388,-2.2347,-2.2314,-2.2271,-2.2233,-2.2181,-2.2138,-2.2124,-2.2107,-2.2115,-2.2115,-2.2109,-2.2073,-2.2079,-2.213,-2.213,-2.213,-2.213,-2.213,-2.213,-2.2665,-2.2641,-2.2613,-2.2572,-2.2539,-2.2506,-2.2484,-2.2453,-2.2421,-2.2376,-2.2345,-2.2312,-2.2266,-2.222,-2.2183,-2.2169,-2.2155,-2.2169,-2.215,-2.2117,-2.2111,-2.2105,-2.2109,-2.2166,-2.2167,-2.2187,-2.2187,-2.2187]},{"header":{"parameterUnit":"m.s-1","parameterCategory":1,"la1":30.2991,"la2":30.254,"lo1":-89.0895,"lo2":-89.0444,"dy":0.0017,"dx":0.0017,"nx":28,"ny":28,"refTime":"2024-05-28T09:00:00:Z","depth":0,"parameterNumber":3,"parameterNumberName":"V-component_of_WINDS"},"data":[0,0,0,0,0,0,0,0,0,0,0,0,0,0,0,0,0,0,0,0,0,0,0,0,0,0,0,0,0,0,0,0,0,0,0,0,0,0,0,0,0,0,0,0,0,0,0,0,0,0,0,0,0,0,0,0,0,0,-2.2027,-2.2027,0,-2.2035,-2.2035,-2.2035,-2.2013,-2.2012,-2.2011,-2.2011,-2.2017,-2.2018,-2.2019,0,0,0,0,0,0,0,0,0,0,0,0,0,-2.199,-2.199,-2.2027,-2.2027,-2.2027,-2.2035,-2.2035,-2.2035,-2.2013,-2.2012,-2.2011,-2.201,-2.2017,-2.2018,-2.2019,0,0,0,0,0,0,0,0,0,0,0,0,0,-2.2003,-2.1991,-2.2027,-2.2017,-2.2016,-2.2035,-2.2035,-2.2035,-2.2013,-2.2012,-2.2011,-2.201,-2.2017,-2.2018,-2.2019,-2.2048,0,0,-2.2023,-2.2024,0,0,0,0,0,0,0,0,-2.2002,-2.2004,-2.2018,-2.2017,-2.2017,-2.2022,-2.2025,-2.2039,-2.2013,-2.2014,-2.2011,-2.2009,-2.202,-2.2021,-2.2024,-2.2048,-2.2048,-2.2023,-2.2024,-2.2024,-2.2025,0,0,0,0,0,0,0,-2.2001,-2.2004,-2.203,-2.2018,-2.2017,-2.2011,-2.2012,-2.2027,-2.2022,-2.2014,-2.2012,-2.2014,-2.2019,-2.2023,-2.2024,-2.2049,-2.2023,-2.2024,-2.2025,-2.2025,-2.2097,-2.2098,0,0,0,0,0,0,-2.2002,-2.2003,-2.203,-2.203,-2.2007,-2.2013,-2.2014,-2.2021,-2.2022,-2.2021,-2.2015,-2.2013,-2.2022,-2.2023,-2.2024,-2.2059,-2.2024,-2.2026,-2.2026,-2.2096,-2.2098,-2.2099,0,0,0,0,0,0,-2.2001,-2.2004,-2.2029,-2.2016,-2.2019,-2.2015,-2.2023,-2.2022,-2.2026,-2.2023,-2.2022,-2.202,-2.2021,-2.2023,-2.2043,-2.2059,-2.2026,-2.2027,-2.2095,-2.2097,-2.2098,-2.2128,0,0,0,0,0,0,-2.2,-2.2004,-2.2015,-2.2017,-2.202,-2.2048,-2.2024,-2.2023,-2.2029,-2.2026,-2.2028,-2.2027,-2.202,-2.2041,-2.2044,-2.206,-2.2028,-2.2093,-2.2096,-2.2098,-2.2126,-2.2131,-2.2135,0,0,0,0,0,-2.1999,-2.2023,-2.2016,-2.2019,-2.2034,-2.2049,-2.2051,-2.2043,-2.203,-2.2041,-2.2039,-2.2027,-2.2057,-2.2043,-2.2046,-2.2063,-2.2092,-2.2095,-2.2098,-2.2124,-2.213,-2.2135,0,0,0,0,0,0,-2.2023,-2.2023,-2.2015,-2.2041,-2.2045,-2.2045,-2.2059,-2.205,-2.2057,-2.2055,-2.2044,-2.2045,-2.2067,-2.2066,-2.2052,-2.2092,-2.2072,-2.2076,-2.2091,-2.2097,-2.2101,-2.2102,-2.2029,0,0,0,0,0,-2.2031,-2.2044,-2.2043,-2.2066,-2.2068,-2.2063,-2.207,-2.2063,-2.2067,-2.2069,-2.2068,-2.2072,-2.2082,-2.2089,-2.2098,-2.2125,-2.2126,-2.2139,-2.2143,-2.2147,-2.2151,-2.2166,-2.2172,-2.2107,-2.2107,-2.2107,0,0,-2.2049,-2.205,-2.2059,-2.2071,-2.2073,-2.2087,-2.2065,-2.208,-2.209,-2.2071,-2.209,-2.209,-2.2093,-2.2117,-2.2128,-2.2118,-2.2168,-2.215,-2.2154,-2.2155,-2.2169,-2.2175,-2.2181,-2.2109,-2.2109,-2.2109,0,0,-2.2088,-2.209,-2.2109,-2.2113,-2.2117,-2.2114,-2.2119,-2.212,-2.212,-2.2139,-2.2125,-2.2136,-2.2154,-2.2157,-2.2161,-2.2202,-2.2191,-2.2205,-2.223,-2.2245,-2.225,-2.2255,-2.227,-2.2276,-2.2208,-2.2208,-2.2208,0,-2.2108,-2.2129,-2.212,-2.2137,-2.2143,-2.2127,-2.2146,-2.215,-2.2157,-2.2161,-2.215,-2.2173,-2.2174,-2.2199,-2.2209,-2.2212,-2.2217,-2.2206,-2.225,-2.2254,-2.2259,-2.2273,-2.2279,-2.221,-2.221,-2.221,-2.2209,0,-2.2155,-2.2169,-2.2184,-2.2193,-2.22,-2.2218,-2.2212,-2.222,-2.2213,-2.2211,-2.2231,-2.2232,-2.2241,-2.2246,-2.2239,-2.2271,-2.2265,-2.2252,-2.2233,-2.2267,-2.2281,-2.2286,-2.2213,-2.2212,-2.2211,-2.2211,0,0,-2.221,-2.2214,-2.222,-2.2224,-2.2228,-2.2239,-2.2256,-2.2266,-2.2274,-2.2279,-2.2293,-2.2309,-2.2297,-2.2302,-2.2295,-2.2308,-2.2342,-2.2294,-2.2294,-2.2304,-2.2378,-2.2388,-2.2395,-2.2334,-2.2335,-2.2336,-2.2378,0,-2.2249,-2.228,-2.2273,-2.2303,-2.2317,-2.2302,-2.2317,-2.2321,-2.2319,-2.2329,-2.2327,-2.2339,-2.2322,-2.2325,-2.2337,-2.2335,-2.2356,-2.2332,-2.2348,-2.2349,-2.2349,-2.2402,-2.2413,-2.2453,-2.2383,-2.2384,-2.2384,0,-2.23,-2.2309,-2.234,-2.2343,-2.2349,-2.2362,-2.2372,-2.2382,-2.2386,-2.2384,-2.2389,-2.238,-2.2396,-2.2376,-2.2399,-2.2382,-2.2388,-2.2388,-2.239,-2.2392,-2.237,-2.2407,-2.2465,-2.2472,-2.2393,-2.2392,-2.2391,0,-2.2339,-2.2358,-2.238,-2.2384,-2.2387,-2.2397,-2.2399,-2.2402,-2.2409,-2.2416,-2.2421,-2.243,-2.2435,-2.2442,-2.2435,-2.2421,-2.246,-2.2439,-2.2459,-2.2459,-2.2469,-2.2469,-2.2531,-2.2471,-2.247,-2.247,-2.247,0,-2.2385,-2.2405,-2.2398,-2.2411,-2.2434,-2.2425,-2.2447,-2.2447,-2.245,-2.2463,-2.245,-2.2462,-2.2452,-2.2463,-2.2458,-2.2478,-2.248,-2.2479,-2.2478,-2.2481,-2.2482,-2.2486,-2.2484,-2.2472,-2.2472,-2.2471,-2.2471,0,-2.2432,-2.2428,-2.2451,-2.2453,-2.2454,-2.247,-2.2471,-2.2484,-2.2481,-2.2498,-2.2501,-2.2497,-2.251,-2.2503,-2.2516,-2.2512,-2.254,-2.2534,-2.2539,-2.2538,-2.2559,-2.2558,-2.2627,-2.2636,-2.2569,-2.257,-2.257,0,-2.2463,-2.2478,-2.2482,-2.249,-2.2493,-2.2507,-2.2514,-2.2506,-2.2514,-2.252,-2.2532,-2.2543,-2.2553,-2.2574,-2.2571,-2.2581,-2.2577,-2.26,-2.2578,-2.2581,-2.2579,-2.2579,-2.2581,-2.2605,-2.2606,-2.2606,-2.2607,0,-2.2518,-2.2515,-2.2526,-2.2537,-2.2547,-2.2555,-2.2561,-2.2568,-2.256,-2.257,-2.2584,-2.2591,-2.2605,-2.2617,-2.2626,-2.2627,-2.2616,-2.2614,-2.2619,-2.2624,-2.2627,-2.2627,-2.2553,-2.2613,-2.2612,-2.2612,-2.2611,-2.2611,-2.2558,-2.2572,-2.2577,-2.2591,-2.2595,-2.2602,-2.2614,-2.2613,-2.2625,-2.2636,-2.263,-2.2646,-2.265,-2.2661,-2.2663,-2.2675,-2.2666,-2.2674,-2.2676,-2.2678,-2.2682,-2.2624,-2.2677,-2.2677,-2.2676,-2.2676,-2.2676,0,-2.2614,-2.2617,-2.2629,-2.264,-2.265,-2.2639,-2.2646,-2.2656,-2.267,-2.2675,-2.2685,-2.2701,-2.2712,-2.2711,-2.2722,-2.2732,-2.2727,-2.2735,-2.2735,-2.2736,-2.2689,-2.2684,-2.2739,-2.2739,-2.2739,-2.2739,-2.2739,-2.2739,-2.2644,-2.2667,-2.2665,-2.269,-2.2692,-2.2709,-2.2714,-2.272,-2.2724,-2.2743,-2.2753,-2.2752,-2.2755,-2.2766,-2.2776,-2.2775,-2.278,-2.2791,-2.2788,-2.2745,-2.2739,-2.2733,-2.2728,-2.2791,-2.2791,-2.2834,-2.2834,-2.2835]}]]